Tracking 35275 objects as of 9-Sep-2026
HD Live streaming from Space Station
objects crossing your sky now

ARIANE 3 R/B


ARIANE 3 R/B is no longer on orbit


NORAD ID: 15165
Int'l Code: 1984-081C
Launch date: August 4, 1984
Source: France (FR)
Launch site: FRENCH GUIANA (FRGUI)
Decay date: 1990-05-29

Note: This is a ROCKET BODY
Your satellite tracking list
Your tracking list is empty




NASA's NSSDC Master Catalog

Two Line Element Set (TLE):
1 15165U 84081  C 90146.21641184  .14629474 -11710-3 +16472-2 0  9999
2 15165 006.8995 074.5729 0867965 287.2025 063.6493 14.41875311075769
Source of the keplerian elements: AFSPC